Tracking 19279 objects as of 14-Nov-2018
HD Live streaming from Space Station
objects crossing your sky now

ATLAS H R/B

Track ATLAS H R/B now!
10-day predictions


NORAD ID: 16592
Int'l Code: 1986-014B
Perigee: 651.6 km
Apogee: 1,386.4 km
Inclination: 63.3 °
Period: 105.4 minutes
Semi major axis: 7389 km
RCS: Unknown
Launch date: February 9, 1986
Source: United States (US)
Launch site: AIR FORCE WESTERN TEST RANGE (AFWTR)

Note: This is a ROCKET BODY
aabbcc
Your satellite tracking list
Your tracking list is empty




NASA's NSSDC Master Catalog

Two Line Element Set (TLE):
1 16592U 86014B   18291.72062162 0.00000500  00000-0  25401-3 0    02
2 16592  63.3120 169.2258 0497224 114.3592 245.6408 13.66583720    06
Source of the keplerian elements: McCants